Regional Weather Roundup
Issued by NWS

Home | Current Version | Previous Version | Graphics & Text | Print | Product List | Glossary On
Versions: 1 2 3 4 5 6 7 8 9 10 11 12 13 14 15 16 17 18 19 20 21 22 23 24 25 26 27 28 29 30 31 32 33 34 35 36 37 38 39 40 41 42 43 44 45 46 47 48 49 50
762
ASUS44 KLIX 051210
RWRLA
LOUISIANA WEATHER ROUNDUP
NATIONAL WEATHER SERVICE NEW ORLEANS LA
600 AM CST THU MAR 05 2015

NOTE: "FAIR" INDICATES FEW OR NO CLOUDS BELOW 12,000 FEET WITH NO
      SIGNIFICANT WEATHER AND/OR OBSTRUCTIONS TO VISIBILITY.
      SKY/WX - SKY CONDITION AND SIGNIFICANT WEATHER.
      TMP - AIR TEMPERATURE.    DP   - DEWPOINT TEMPERATURE.
      RH  - RELATIVE HUMIDITY.  PRES - PRESSURE.
      HX  - HEAT INDEX.         WCI  - WIND CHILL INDEX.

*  THESE STATIONS ARE NOT NWS OR FAA STATIONS AND ARE NOT UNDER
   NWS QUALITY CONTROL.

LAZ040-048-061>063-065-066-069-051300-
SOUTHEAST LOUISIANA

CITY           SKY/WX    TMP DP  RH WIND       PRES   REMARKS
N.O. AUDUBON     N/A     61  61 100 MISG        N/A
6HR MIN TEMP:  59; 6HR MAX TEMP:  71;

N.O. INTL ARPT LGT RAIN  51  48  89 NW24G30   30.02R FOG
6HR MIN TEMP:  51; 6HR MAX TEMP:  72; 6HR PCP: TRACE;

N.O. LAKEFRONT CLOUDY    56  51  84 NW31G38   30.00R
6HR MIN TEMP:  56; 6HR MAX TEMP:  73;

SLIDELL        CLOUDY    55  52  89 N15G25    30.00R
6HR MIN TEMP:  55; 6HR MAX TEMP:  71;

BATON ROUGE    MIX PCPN  37  34  89 NW16G32   30.18R WCI  28
6HR MIN TEMP:  37; 6HR MAX TEMP:  73; 6HR PCP:  0.05;

BOOTHVILLE     CLOUDY    69  69 100 SW5       29.98R FOG
6HR MIN TEMP:  68; 6HR MAX TEMP:  71;

BELLE CHASSE   MOCLDY    72  67  84 W6        29.95R
6HR MIN TEMP:  70; 6HR MAX TEMP:  72;

BOGALUSA*        N/A     46  42  84 N14       30.08R
6HR MIN TEMP:  46; 6HR MAX TEMP:  73;

GALLIANO*      MOSUNNY   68  67  96 S9        29.96S
6HR MIN TEMP:  66; 6HR MAX TEMP:  72;

NEW ROADS*     LGT RAIN  34  32  92 N20G29    30.22R WCI  23
6HR MIN TEMP:  34; 6HR MAX TEMP:  62; 6HR PCP:  0.13;

GONZALES*      LGT RAIN  41  40  99 NW20G28   30.13R
6HR MIN TEMP:  41; 6HR MAX TEMP:  72; 6HR PCP:  0.01;

HAMMOND*       CLOUDY    43  39  87 N18G31    30.12R
HOUMA*         MOCLDY    61  57  88 NW28      29.99R
PORT FOURCHON* MOSUNNY   70  70 100 SW8       30.00R FOG

$$

LAZ041-044-053-054-051300-
SOUTHWEST LOUISIANA

CITY           SKY/WX    TMP DP  RH WIND       PRES   REMARKS
LAKE CHARLES   LGT RAIN  39  36  89 N21G30    30.18R WCI  29
6HR MIN TEMP:  39; 6HR MAX TEMP:  70; 6HR PCP:  0.12;

LAFAYETTE      CLOUDY    37  34  89 NE17G36   30.17R WCI  27
6HR MIN TEMP:  37; 6HR MAX TEMP:  72; 6HR PCP:  0.05;

PATTERSON      CLOUDY    43  39  87 N20G28    30.07R
6HR MIN TEMP:  43; 6HR MAX TEMP:  72;

SALT POINT       N/A     42  41  96 N17G32    30.08R
6HR MIN TEMP:  42; 6HR MAX TEMP:  68; 6HR PCP:  0.01;

NEW IBERIA     LGT RAIN  39  35  86 N33G45    30.16R WCI  27
6HR MIN TEMP:  39; 6HR MAX TEMP:  71; 6HR PCP:  0.03;

CHENAULT AIRPK NOT AVBL

$$

LAZ027-028-051300-
CENTRAL LOUISIANA

CITY           SKY/WX    TMP DP  RH WIND       PRES   REMARKS
FORT POLK      HVY RAIN  34  34 100 N13       30.23S VSB 1/2 WCI  25
ALEXANDRIA INT RAIN      34  33  96 N13       30.26R FOG     WCI  25
6HR MIN TEMP:  33; 6HR MAX TEMP:  41; 6HR PCP:  0.39;

ALEXANDRIA     RAIN      35  32  88 VRB6      30.27R WCI  30
6HR MIN TEMP:  35; 6HR MAX TEMP:  42; 6HR PCP:  0.25;


$$

LAZ001-002-051300-
NORTHWEST LOUISIANA

CITY           SKY/WX    TMP DP  RH WIND       PRES   REMARKS
SHREVEPORT     FLURRIES  29  23  78 N21G31    30.36R WCI  16
6HR MIN TEMP:  29; 6HR MAX TEMP:  36; 6HR PCP:  0.38;

BARKSDALE AFB  CLOUDY    28  24  84 N16G24    30.38R WCI  16
6HR MIN TEMP:  28; 6HR MAX TEMP:  35; 6HR PCP:  0.40;

DTN SHREVEPORT CLOUDY    28  22  78 N15G23    30.39R WCI  16
6HR MIN TEMP:  28; 6HR MAX TEMP:  35; 6HR PCP:  0.32;


$$

LAZ014-016-051300-
NORTHEAST LOUISIANA

CITY           SKY/WX    TMP DP  RH WIND       PRES   REMARKS
MONROE         MIX PCPN  28  25  88 N23G32    30.36R WCI  14
6HR MIN TEMP:  28; 6HR MAX TEMP:  35; 6HR PCP:  0.23;

TALLULAH       MIX PCPN  32  30  92 N18       30.27R FOG     WCI  20
6HR MIN TEMP:  31; 6HR MAX TEMP:  36; 6HR PCP:  0.20;


$$




USA.gov is the U.S. government's official web portal to all federal, state and local government web resources and services.